Location: Essen
(51.4609°N, 7.0127°E)
Time: 12:23:35
(UTC+01:00)

ISS - Visible Passes

Search period start: 24 November 2017 00:00
Search period end: 04 December 2017 00:00
Orbit: 402 x 407 km, 51.6° (Epoch: 24 November)

Date Brightness Start Highest point End Pass type
(mag) Time Alt. Az. Time Alt. Az. Time Alt. Az.
28 Nov -1.4 18:16:54 10° SSE 18:17:50 12° SE 18:17:50 12° SE visible
29 Nov -1.8 18:58:53 10° SW 19:00:25 22° SSW 19:00:25 22° SSW visible
30 Nov -2.2 18:07:03 10° SSW 18:09:38 21° SE 18:10:15 20° SE visible
30 Nov -0.6 19:42:28 10° WSW 19:42:54 13° WSW 19:42:54 13° WSW visible
01 Dec -1.5 17:15:39 10° S 17:17:27 14° SE 17:19:16 10° ESE visible
01 Dec -2.8 18:50:11 10° SW 18:52:40 41° SSW 18:52:40 41° SSW visible
02 Dec -2.9 17:58:01 10° SW 18:01:04 36° SSE 18:02:23 25° ESE visible
02 Dec -0.9 19:34:05 10° W 19:35:02 18° W 19:35:02 18° W visible
03 Dec -2.2 17:06:04 10° SSW 17:08:48 25° SSE 17:11:33 10° E visible
03 Dec -3.7 18:41:41 10° WSW 18:44:42 69° SSW 18:44:42 69° SSW visible
